,,,PA_Meas_PMT16A,,PR_Meas_QMR101_102,,RH_Meas_QMH101,,SR_Meas_QMS101,,TA_Meas_QMH101,,GenWind,,GenWind,
date,time,status,PA,status,PR,status,RH,status,SR,status,TA,status,DirAvg,status,SpdAvg,
2010-08-07, 00:00:04,VALID,1010.04,VALID,0,VALID,103.1,VALID,0,VALID,23.9455,VALID,178,VALID,0,
2010-08-07, 00:01:04,VALID,1010.07,VALID,0,VALID,103.085,VALID,0,VALID,23.965,VALID,178,VALID,0,
2010-08-07, 00:02:04,VALID,1010.07,VALID,0,VALID,103.062,VALID,0,VALID,23.9668,VALID,178,VALID,0,
2010-08-07, 00:03:04,VALID,1010.09,VALID,0,VALID,103.062,VALID,0.105969,VALID,23.965,VALID,178,VALID,0,
2010-08-07, 00:04:04,VALID,1010.11,VALID,0,VALID,103.07,VALID,0.105969,VALID,23.9668,VALID,178,VALID,0,
2010-08-07, 00:05:04,VALID,1010.11,VALID,0,VALID,103.07,VALID,0,VALID,23.9455,VALID,178,VALID,0,
2010-08-07, 00:06:04,VALID,1010.12,VALID,0,VALID,103.07,VALID,0,VALID,23.9668,VALID,178,VALID,0,
2010-08-07, 00:07:04,VALID,1010.1,VALID,0,VALID,103.07,VALID,0,VALID,23.926,VALID,178,VALID,0,
2010-08-07, 00:08:04,VALID,1010.12,VALID,0,VALID,103.062,VALID,0.105969,VALID,23.926,VALID,178,VALID,0,
2010-08-07, 00:09:04,VALID,1010.09,VALID,0,VALID,103.062,VALID,0,VALID,23.9065,VALID,178,VALID,0,
2010-08-07, 00:10:04,VALID,1010.08,VALID,0,VALID,103.062,VALID,0,VALID,23.9084,VALID,178,VALID,0.0871094,
2010-08-07, 00:11:04,VALID,1010.06,VALID,0,VALID,103.054,VALID,0,VALID,23.8889,VALID,178,VALID,0,
2010-08-07, 00:12:04,VALID,1010.07,VALID,0,VALID,103.077,VALID,0.105969,VALID,23.8676,VALID,171,VALID,0.331641,
2010-08-07, 00:13:04,VALID,1010.05,VALID,0,VALID,103.085,VALID,0,VALID,23.8481,VALID,149,VALID,0.381641,
2010-08-07, 00:14:04,VALID,1010.02,VALID,0,VALID,103.054,VALID,0,VALID,23.8481,VALID,149,VALID,0.451953,
2010-08-07, 00:15:04,VALID,1010.03,VALID,0,VALID,103.062,VALID,0,VALID,23.8871,VALID,149,VALID,0.346875,
2010-08-07, 00:16:04,VALID,1010.02,VALID,0,VALID,103.054,VALID,0.105969,VALID,23.9084,VALID,149,VALID,0.175,
2010-08-07, 00:17:04,VALID,1010.04,VALID,0,VALID,103.077,VALID,0.105969,VALID,23.9278,VALID,149,VALID,0.123828,
2010-08-07, 00:18:04,VALID,1010.03,VALID,0,VALID,103.062,VALID,0,VALID,23.9278,VALID,149,VALID,0,
2010-08-07, 00:19:04,VALID,1010.06,VALID,0,VALID,103.062,VALID,0,VALID,23.9473,VALID,149,VALID,0,
2010-08-07, 00:20:04,VALID,1010.06,VALID,0,VALID,103.07,VALID,0,VALID,23.9065,VALID,149,VALID,0,
2010-08-07, 00:21:04,VALID,1010.09,VALID,0,VALID,103.062,VALID,0,VALID,23.9065,VALID,149,VALID,0,
2010-08-07, 00:22:04,VALID,1010.1,VALID,0,VALID,103.054,VALID,0.105969,VALID,23.9278,VALID,149,VALID,0.0140625,
2010-08-07, 00:23:04,VALID,1010.1,VALID,0,VALID,103.039,VALID,0.105969,VALID,23.9065,VALID,149,VALID,0.0316406,
2010-08-07, 00:24:04,VALID,1010.15,VALID,0,VALID,103.016,VALID,0,VALID,23.8889,VALID,149,VALID,0,
2010-08-07, 00:25:04,VALID,1010.16,VALID,0,VALID,103.016,VALID,0,VALID,23.8694,VALID,149,VALID,0,
2010-08-07, 00:26:04,VALID,1010.17,VALID,0,VALID,102.993,VALID,0.105969,VALID,23.8499,VALID,149,VALID,0,
2010-08-07, 00:27:04,VALID,1010.19,VALID,0,VALID,102.986,VALID,0.105969,VALID,23.8286,VALID,149,VALID,0,
2010-08-07, 00:28:04,VALID,1010.21,VALID,0,VALID,103.009,VALID,0.105969,VALID,23.8091,VALID,149,VALID,0,
2010-08-07, 00:29:04,VALID,1010.23,VALID,0,VALID,103.016,VALID,0.105969,VALID,23.8499,VALID,149,VALID,0,
2010-08-07, 00:30:04,VALID,1010.21,VALID,0,VALID,103.032,VALID,0,VALID,23.8694,VALID,149,VALID,0,
2010-08-07, 00:31:04,VALID,1010.24,VALID,0,VALID,103.054,VALID,0.105969,VALID,23.8481,VALID,149,VALID,0,
2010-08-07, 00:32:04,VALID,1010.25,VALID,0,VALID,103.07,VALID,0.105969,VALID,23.8676,VALID,149,VALID,0,
2010-08-07, 00:33:04,VALID,1010.23,VALID,0,VALID,103.085,VALID,0.105969,VALID,23.8286,VALID,149,VALID,0,
2010-08-07, 00:34:04,VALID,1010.21,VALID,0,VALID,103.077,VALID,0,VALID,23.8091,VALID,149,VALID,0,
2010-08-07, 00:35:04,VALID,1010.22,VALID,0,VALID,103.062,VALID,0,VALID,23.7914,VALID,149,VALID,0,
2010-08-07, 00:36:04,VALID,1010.19,VALID,0,VALID,103.062,VALID,0,VALID,23.7914,VALID,149,VALID,0,
2010-08-07, 00:37:04,VALID,1010.17,VALID,0,VALID,103.054,VALID,0.105969,VALID,23.7507,VALID,149,VALID,0,
2010-08-07, 00:38:04,VALID,1010.16,VALID,0,VALID,103.032,VALID,0,VALID,23.7525,VALID,149,VALID,0,
2010-08-07, 00:39:04,VALID,1010.15,VALID,0,VALID,103.039,VALID,0,VALID,23.733,VALID,149,VALID,0,
2010-08-07, 00:40:04,VALID,1010.13,VALID,0,VALID,103.047,VALID,0,VALID,23.7543,VALID,149,VALID,0,
2010-08-07, 00:41:04,VALID,1010.12,VALID,0,VALID,103.024,VALID,0,VALID,23.733,VALID,149,VALID,0,
2010-08-07, 00:42:04,VALID,1010.12,VALID,0,VALID,103.039,VALID,0,VALID,23.7135,VALID,149,VALID,0,
2010-08-07, 00:43:04,VALID,1010.07,VALID,0,VALID,103.047,VALID,0,VALID,23.733,VALID,149,VALID,0,
2010-08-07, 00:44:04,VALID,1010.04,VALID,0,VALID,103.062,VALID,0,VALID,23.7525,VALID,149,VALID,0,
2010-08-07, 00:45:04,VALID,1010.02,VALID,0,VALID,103.1,VALID,0,VALID,23.7525,VALID,149,VALID,0,
2010-08-07, 00:46:04,VALID,1010,VALID,0,VALID,103.1,VALID,0,VALID,23.7525,VALID,149,VALID,0,
2010-08-07, 00:47:04,VALID,1010,VALID,0,VALID,103.1,VALID,0,VALID,23.7525,VALID,149,VALID,0,
2010-08-07, 00:48:04,VALID,1009.98,VALID,0,VALID,103.123,VALID,0,VALID,23.7525,VALID,149,VALID,0.193359,
2010-08-07, 00:49:04,VALID,1009.98,VALID,0,VALID,103.131,VALID,0,VALID,23.7525,VALID,149,VALID,0.425781,
2010-08-07, 00:50:04,VALID,1009.95,VALID,0,VALID,103.1,VALID,0,VALID,23.7117,VALID,149,VALID,0.475391,
2010-08-07, 00:51:04,VALID,1009.96,VALID,0,VALID,103.108,VALID,0,VALID,23.7525,VALID,149,VALID,0.364062,
2010-08-07, 00:52:04,VALID,1009.93,VALID,0,VALID,103.123,VALID,0,VALID,23.733,VALID,149,VALID,0.398828,
2010-08-07, 00:53:04,VALID,1009.97,VALID,0,VALID,103.138,VALID,0,VALID,23.7135,VALID,149,VALID,0.282031,
2010-08-07, 00:54:04,VALID,1009.93,VALID,0,VALID,103.138,VALID,0,VALID,23.6532,VALID,149,VALID,0.0335938,
2010-08-07, 00:55:04,VALID,1009.93,VALID,0,VALID,103.154,VALID,0,VALID,23.694,VALID,149,VALID,0,
2010-08-07, 00:56:04,VALID,1009.93,VALID,0,VALID,103.131,VALID,0,VALID,23.694,VALID,149,VALID,0,
2010-08-07, 00:57:04,VALID,1009.9,VALID,0,VALID,103.131,VALID,0,VALID,23.6727,VALID,149,VALID,0,
2010-08-07, 00:58:04,VALID,1009.86,VALID,0,VALID,103.138,VALID,0,VALID,23.6745,VALID,149,VALID,0,
2010-08-07, 00:59:04,VALID,1009.85,VALID,0,VALID,103.138,VALID,0,VALID,23.694,VALID,149,VALID,0,
2010-08-07, 01:00:04,VALID,1009.8,VALID,0,VALID,103.169,VALID,0,VALID,23.655,VALID,149,VALID,0,
2010-08-07, 01:01:04,VALID,1009.79,VALID,0,VALID,103.176,VALID,0,VALID,23.6161,VALID,149,VALID,0,
2010-08-07, 01:02:04,VALID,1009.77,VALID,0,VALID,103.154,VALID,0,VALID,23.6161,VALID,149,VALID,0,
2010-08-07, 01:03:04,VALID,1009.79,VALID,0,VALID,103.131,VALID,0,VALID,23.6161,VALID,149,VALID,0,
2010-08-07, 01:04:04,VALID,1009.76,VALID,0,VALID,103.131,VALID,0,VALID,23.6143,VALID,149,VALID,0,
2010-08-07, 01:05:04,VALID,1009.73,VALID,0,VALID,103.123,VALID,0,VALID,23.655,VALID,149,VALID,0,
2010-08-07, 01:06:04,VALID,1009.71,VALID,0,VALID,103.154,VALID,0,VALID,23.6338,VALID,149,VALID,0,
2010-08-07, 01:07:04,VALID,1009.69,VALID,0,VALID,103.154,VALID,0,VALID,23.655,VALID,149,VALID,0,
2010-08-07, 01:08:04,VALID,1009.67,VALID,0,VALID,103.176,VALID,0,VALID,23.6161,VALID,149,VALID,0,
2010-08-07, 01:09:04,VALID,1009.65,VALID,0,VALID,103.169,VALID,0,VALID,23.6161,VALID,149,VALID,0,
2010-08-07, 01:10:04,VALID,1009.64,VALID,0,VALID,103.169,VALID,0.105969,VALID,23.5753,VALID,149,VALID,0,
2010-08-07, 01:11:04,VALID,1009.65,VALID,0,VALID,103.161,VALID,0,VALID,23.5771,VALID,149,VALID,0,
2010-08-07, 01:12:04,VALID,1009.64,VALID,0,VALID,103.161,VALID,0,VALID,23.5576,VALID,149,VALID,0,
2010-08-07, 01:13:04,VALID,1009.64,VALID,0,VALID,103.176,VALID,0,VALID,23.5576,VALID,149,VALID,0,
2010-08-07, 01:14:04,VALID,1009.67,VALID,0,VALID,103.161,VALID,0,VALID,23.5381,VALID,149,VALID,0,
2010-08-07, 01:15:04,VALID,1009.68,VALID,0,VALID,103.146,VALID,0,VALID,23.5771,VALID,149,VALID,0,
2010-08-07, 01:16:04,VALID,1009.68,VALID,0,VALID,103.138,VALID,0,VALID,23.5558,VALID,149,VALID,0.414063,
2010-08-07, 01:17:04,VALID,1009.67,VALID,0,VALID,103.146,VALID,0,VALID,23.5966,VALID,149,VALID,0.435547,
2010-08-07, 01:18:04,VALID,1009.69,VALID,0,VALID,103.154,VALID,0,VALID,23.5966,VALID,149,VALID,0.280469,
2010-08-07, 01:19:04,VALID,1009.67,VALID,0,VALID,103.154,VALID,0,VALID,23.5576,VALID,149,VALID,0.261328,
2010-08-07, 01:20:04,VALID,1009.66,VALID,0,VALID,103.184,VALID,0,VALID,23.5576,VALID,149,VALID,0,
2010-08-07, 01:21:04,VALID,1009.62,VALID,0,VALID,103.184,VALID,0,VALID,23.5381,VALID,149,VALID,0.0234375,
2010-08-07, 01:22:04,VALID,1009.58,VALID,0,VALID,103.184,VALID,0.105969,VALID,23.5186,VALID,149,VALID,0.366797,
2010-08-07, 01:23:04,VALID,1009.58,VALID,0,VALID,103.176,VALID,0,VALID,23.4992,VALID,149,VALID,0.426562,
2010-08-07, 01:24:04,VALID,1009.54,VALID,0,VALID,103.184,VALID,0,VALID,23.4797,VALID,149,VALID,0.295703,
2010-08-07, 01:25:04,VALID,1009.53,VALID,0,VALID,103.161,VALID,0,VALID,23.4602,VALID,149,VALID,0.0109375,
2010-08-07, 01:26:04,VALID,1009.51,VALID,0,VALID,103.184,VALID,0,VALID,23.4602,VALID,149,VALID,0,
2010-08-07, 01:27:04,VALID,1009.54,VALID,0,VALID,103.154,VALID,0,VALID,23.4602,VALID,149,VALID,0,
2010-08-07, 01:28:04,VALID,1009.51,VALID,0,VALID,103.169,VALID,0,VALID,23.4389,VALID,149,VALID,0,
2010-08-07, 01:29:04,VALID,1009.5,VALID,0,VALID,103.161,VALID,0,VALID,23.4602,VALID,149,VALID,0,
2010-08-07, 01:30:04,VALID,1009.51,VALID,0,VALID,103.161,VALID,0.105969,VALID,23.4602,VALID,149,VALID,0,
2010-08-07, 01:31:04,VALID,1009.54,VALID,0,VALID,103.154,VALID,0,VALID,23.4194,VALID,149,VALID,0,
2010-08-07, 01:32:04,VALID,1009.54,VALID,0,VALID,103.138,VALID,0,VALID,23.4797,VALID,149,VALID,0,
2010-08-07, 01:33:04,VALID,1009.54,VALID,0,VALID,103.161,VALID,0,VALID,23.4584,VALID,149,VALID,0,
2010-08-07, 01:34:04,VALID,1009.55,VALID,0,VALID,103.161,VALID,0,VALID,23.4797,VALID,149,VALID,0,
2010-08-07, 01:35:04,VALID,1009.53,VALID,0,VALID,103.161,VALID,0,VALID,23.462,VALID,149,VALID,0,
2010-08-07, 01:36:04,VALID,1009.52,VALID,0,VALID,103.192,VALID,0,VALID,23.4212,VALID,149,VALID,0,
2010-08-07, 01:37:04,VALID,1009.49,VALID,0,VALID,103.192,VALID,0,VALID,23.4017,VALID,149,VALID,0,
2010-08-07, 01:38:04,VALID,1009.51,VALID,0,VALID,103.192,VALID,0,VALID,23.423,VALID,149,VALID,0,
2010-08-07, 01:39:04,VALID,1009.52,VALID,0,VALID,103.192,VALID,0,VALID,23.3823,VALID,149,VALID,0,
2010-08-07, 01:40:04,VALID,1009.52,VALID,0,VALID,103.192,VALID,0,VALID,23.3433,VALID,149,VALID,0,
2010-08-07, 01:41:04,VALID,1009.51,VALID,0,VALID,103.176,VALID,0,VALID,23.3628,VALID,149,VALID,0,
2010-08-07, 01:42:04,VALID,1009.51,VALID,0,VALID,103.199,VALID,0,VALID,23.3628,VALID,149,VALID,0,
2010-08-07, 01:43:04,VALID,1009.5,VALID,0,VALID,103.184,VALID,0,VALID,23.3628,VALID,149,VALID,0,
2010-08-07, 01:44:04,VALID,1009.48,VALID,0,VALID,103.176,VALID,0,VALID,23.3645,VALID,149,VALID,0,
2010-08-07, 01:45:04,VALID,1009.46,VALID,0,VALID,103.169,VALID,0,VALID,23.384,VALID,149,VALID,0,
2010-08-07, 01:46:04,VALID,1009.43,VALID,0,VALID,103.176,VALID,0,VALID,23.3433,VALID,149,VALID,0,
2010-08-07, 01:47:04,VALID,1009.42,VALID,0,VALID,103.169,VALID,0,VALID,23.3433,VALID,149,VALID,0,
2010-08-07, 01:48:04,VALID,1009.4,VALID,0,VALID,103.176,VALID,0,VALID,23.3645,VALID,149,VALID,0,
2010-08-07, 01:49:04,VALID,1009.37,VALID,0,VALID,103.154,VALID,0,VALID,23.384,VALID,149,VALID,0,
2010-08-07, 01:50:04,VALID,1009.39,VALID,0,VALID,103.154,VALID,0,VALID,23.361,VALID,149,VALID,0,
2010-08-07, 01:51:04,VALID,1009.38,VALID,0,VALID,103.169,VALID,0,VALID,23.361,VALID,149,VALID,0,
2010-08-07, 01:52:04,VALID,1009.38,VALID,0,VALID,103.169,VALID,0,VALID,23.3823,VALID,149,VALID,0,
2010-08-07, 01:53:04,VALID,1009.36,VALID,0,VALID,103.176,VALID,0,VALID,23.3628,VALID,149,VALID,0,
2010-08-07, 01:54:04,VALID,1009.35,VALID,0,VALID,103.176,VALID,0,VALID,23.3628,VALID,149,VALID,0,
2010-08-07, 01:55:04,VALID,1009.35,VALID,0,VALID,103.161,VALID,0.105969,VALID,23.3415,VALID,149,VALID,0,
2010-08-07, 01:56:04,VALID,1009.32,VALID,0,VALID,103.154,VALID,0,VALID,23.3415,VALID,149,VALID,0,
2010-08-07, 01:57:04,VALID,1009.31,VALID,0,VALID,103.146,VALID,0,VALID,23.3628,VALID,149,VALID,0,
2010-08-07, 01:58:04,VALID,1009.26,VALID,0,VALID,103.169,VALID,0,VALID,23.3415,VALID,149,VALID,0,
2010-08-07, 01:59:04,VALID,1009.25,VALID,0,VALID,103.169,VALID,0.105969,VALID,23.3415,VALID,149,VALID,0,
2010-08-07, 02:00:04,VALID,1009.23,VALID,0,VALID,103.131,VALID,0,VALID,23.3415,VALID,149,VALID,0,
2010-08-07, 02:01:04,VALID,1009.21,VALID,0,VALID,103.161,VALID,0,VALID,23.3415,VALID,149,VALID,0,
2010-08-07, 02:02:04,VALID,1009.18,VALID,0,VALID,103.146,VALID,0.105969,VALID,23.3415,VALID,149,VALID,0,
2010-08-07, 02:03:04,VALID,1009.17,VALID,0,VALID,103.161,VALID,0.105969,VALID,23.3415,VALID,149,VALID,0,
2010-08-07, 02:04:04,VALID,1009.14,VALID,0,VALID,103.146,VALID,0,VALID,23.3415,VALID,149,VALID,0,
2010-08-07, 02:05:04,VALID,1009.17,VALID,0,VALID,103.146,VALID,0,VALID,23.3433,VALID,149,VALID,0,
2010-08-07, 02:06:04,VALID,1009.15,VALID,0,VALID,103.154,VALID,0,VALID,23.3238,VALID,149,VALID,0,
2010-08-07, 02:07:04,VALID,1009.12,VALID,0,VALID,103.161,VALID,0,VALID,23.3043,VALID,149,VALID,0,
2010-08-07, 02:08:04,VALID,1009.12,VALID,0,VALID,103.154,VALID,0,VALID,23.2848,VALID,149,VALID,0,
2010-08-07, 02:09:04,VALID,1009.12,VALID,0,VALID,103.169,VALID,0,VALID,23.2654,VALID,149,VALID,0,
2010-08-07, 02:10:04,VALID,1009.1,VALID,0,VALID,103.184,VALID,0,VALID,23.2654,VALID,149,VALID,0,
2010-08-07, 02:11:04,VALID,1009.1,VALID,0,VALID,103.184,VALID,0,VALID,23.2459,VALID,149,VALID,0.126172,
2010-08-07, 02:12:04,VALID,1009.11,VALID,0,VALID,103.176,VALID,0,VALID,23.2459,VALID,149,VALID,0.235547,
2010-08-07, 02:13:04,VALID,1009.12,VALID,0,VALID,103.169,VALID,0,VALID,23.2264,VALID,149,VALID,0.255078,
2010-08-07, 02:14:04,VALID,1009.13,VALID,0,VALID,103.169,VALID,0,VALID,23.2264,VALID,149,VALID,0.206641,
2010-08-07, 02:15:04,VALID,1009.11,VALID,0,VALID,103.169,VALID,0,VALID,23.2264,VALID,149,VALID,0,
2010-08-07, 02:16:04,VALID,1009.1,VALID,0,VALID,103.169,VALID,0,VALID,23.2282,VALID,149,VALID,0,
2010-08-07, 02:17:04,VALID,1009.1,VALID,0,VALID,103.176,VALID,0,VALID,23.1874,VALID,149,VALID,0,
2010-08-07, 02:18:04,VALID,1009.07,VALID,0,VALID,103.169,VALID,0,VALID,23.2087,VALID,149,VALID,0,
2010-08-07, 02:19:04,VALID,1009.07,VALID,0,VALID,103.169,VALID,0,VALID,23.1874,VALID,149,VALID,0,
2010-08-07, 02:20:04,VALID,1009.06,VALID,0,VALID,103.184,VALID,0.105969,VALID,23.1662,VALID,149,VALID,0,
2010-08-07, 02:21:04,VALID,1009.05,VALID,0,VALID,103.184,VALID,0.105969,VALID,23.1662,VALID,149,VALID,0,
2010-08-07, 02:22:04,VALID,1009,VALID,0,VALID,103.199,VALID,0,VALID,23.1467,VALID,149,VALID,0,
2010-08-07, 02:23:04,VALID,1008.99,VALID,0,VALID,103.192,VALID,0,VALID,23.1485,VALID,149,VALID,0,
2010-08-07, 02:24:04,VALID,1009,VALID,0,VALID,103.199,VALID,0,VALID,23.1272,VALID,149,VALID,0,
2010-08-07, 02:25:04,VALID,1008.95,VALID,0,VALID,103.199,VALID,0,VALID,23.129,VALID,149,VALID,0,
2010-08-07, 02:26:04,VALID,1008.97,VALID,0,VALID,103.192,VALID,0.105969,VALID,23.1077,VALID,149,VALID,0,
2010-08-07, 02:27:04,VALID,1008.92,VALID,0,VALID,103.176,VALID,0.105969,VALID,23.129,VALID,149,VALID,0,
2010-08-07, 02:28:04,VALID,1008.9,VALID,0,VALID,103.184,VALID,0,VALID,23.1077,VALID,149,VALID,0,
2010-08-07, 02:29:04,VALID,1008.89,VALID,0,VALID,103.169,VALID,0,VALID,23.0865,VALID,149,VALID,0,
2010-08-07, 02:30:04,VALID,1008.9,VALID,0,VALID,103.199,VALID,0,VALID,23.0883,VALID,149,VALID,0,
2010-08-07, 02:31:04,VALID,1008.91,VALID,0,VALID,103.176,VALID,0,VALID,23.0688,VALID,149,VALID,0,
2010-08-07, 02:32:04,VALID,1008.87,VALID,0,VALID,103.161,VALID,0.105969,VALID,23.0883,VALID,149,VALID,0,
2010-08-07, 02:33:04,VALID,1008.86,VALID,0,VALID,103.161,VALID,0,VALID,23.0688,VALID,149,VALID,0,
2010-08-07, 02:34:04,VALID,1008.86,VALID,0,VALID,103.161,VALID,0.105969,VALID,23.09,VALID,149,VALID,0,
2010-08-07, 02:35:04,VALID,1008.86,VALID,0,VALID,103.154,VALID,0,VALID,23.09,VALID,149,VALID,0,
2010-08-07, 02:36:04,VALID,1008.88,VALID,0,VALID,103.169,VALID,0,VALID,23.09,VALID,149,VALID,0,
2010-08-07, 02:37:04,VALID,1008.88,VALID,0,VALID,103.154,VALID,0,VALID,23.0705,VALID,149,VALID,0,
2010-08-07, 02:38:04,VALID,1008.87,VALID,0,VALID,103.146,VALID,0,VALID,23.0705,VALID,149,VALID,0,
2010-08-07, 02:39:04,VALID,1008.87,VALID,0,VALID,103.138,VALID,0,VALID,23.0705,VALID,149,VALID,0,
2010-08-07, 02:40:04,VALID,1008.85,VALID,0,VALID,103.146,VALID,0,VALID,23.0705,VALID,149,VALID,0,
2010-08-07, 02:41:04,VALID,1008.85,VALID,0,VALID,103.146,VALID,0,VALID,23.0705,VALID,149,VALID,0,
2010-08-07, 02:42:04,VALID,1008.85,VALID,0,VALID,103.131,VALID,0,VALID,23.0705,VALID,149,VALID,0,
2010-08-07, 02:43:04,VALID,1008.82,VALID,0,VALID,103.161,VALID,0,VALID,23.0705,VALID,149,VALID,0,
2010-08-07, 02:44:04,VALID,1008.81,VALID,0,VALID,103.161,VALID,0.105969,VALID,23.0705,VALID,149,VALID,0,
2010-08-07, 02:45:04,VALID,1008.8,VALID,0,VALID,103.161,VALID,0,VALID,23.0316,VALID,149,VALID,0,
2010-08-07, 02:46:04,VALID,1008.77,VALID,0,VALID,103.207,VALID,0,VALID,22.9926,VALID,149,VALID,0,
2010-08-07, 02:47:04,VALID,1008.74,VALID,0,VALID,103.222,VALID,0,VALID,22.9731,VALID,149,VALID,0,
2010-08-07, 02:48:04,VALID,1008.72,VALID,0,VALID,103.245,VALID,0,VALID,22.9536,VALID,149,VALID,0,
2010-08-07, 02:49:04,VALID,1008.71,VALID,0,VALID,103.222,VALID,0,VALID,22.9536,VALID,149,VALID,0,
2010-08-07, 02:50:04,VALID,1008.69,VALID,0,VALID,103.207,VALID,0,VALID,22.9536,VALID,149,VALID,0,
2010-08-07, 02:51:04,VALID,1008.69,VALID,0,VALID,103.199,VALID,0,VALID,22.9324,VALID,149,VALID,0,
2010-08-07, 02:52:04,VALID,1008.67,VALID,0,VALID,103.207,VALID,0,VALID,22.9342,VALID,149,VALID,0,
2010-08-07, 02:53:04,VALID,1008.66,VALID,0,VALID,103.184,VALID,0,VALID,22.9147,VALID,149,VALID,0,
2010-08-07, 02:54:04,VALID,1008.66,VALID,0,VALID,103.176,VALID,0,VALID,22.9342,VALID,149,VALID,0,
2010-08-07, 02:55:04,VALID,1008.69,VALID,0,VALID,103.176,VALID,0,VALID,22.9342,VALID,149,VALID,0,
2010-08-07, 02:56:04,VALID,1008.7,VALID,0,VALID,103.192,VALID,0,VALID,22.9342,VALID,149,VALID,0,
2010-08-07, 02:57:04,VALID,1008.68,VALID,0,VALID,103.184,VALID,0,VALID,22.9359,VALID,149,VALID,0,
2010-08-07, 02:58:04,VALID,1008.68,VALID,0,VALID,103.161,VALID,0,VALID,22.9342,VALID,149,VALID,0,
2010-08-07, 02:59:04,VALID,1008.68,VALID,0,VALID,103.154,VALID,0,VALID,22.9342,VALID,149,VALID,0,
2010-08-07, 03:00:04,VALID,1008.69,VALID,0,VALID,103.146,VALID,0,VALID,22.9536,VALID,149,VALID,0,
2010-08-07, 03:01:04,VALID,1008.69,VALID,0,VALID,103.176,VALID,0,VALID,22.9554,VALID,149,VALID,0,
2010-08-07, 03:02:04,VALID,1008.65,VALID,0,VALID,103.176,VALID,0,VALID,22.9147,VALID,149,VALID,0,
2010-08-07, 03:03:04,VALID,1008.68,VALID,0,VALID,103.184,VALID,0,VALID,22.9147,VALID,149,VALID,0,
2010-08-07, 03:04:04,VALID,1008.66,VALID,0,VALID,103.184,VALID,0,VALID,22.8952,VALID,149,VALID,0,
2010-08-07, 03:05:04,VALID,1008.7,VALID,0,VALID,103.184,VALID,0.105969,VALID,22.8935,VALID,149,VALID,0,
2010-08-07, 03:06:04,VALID,1008.68,VALID,0,VALID,103.192,VALID,0.105969,VALID,22.8935,VALID,149,VALID,0,
2010-08-07, 03:07:04,VALID,1008.66,VALID,0,VALID,103.176,VALID,0.105969,VALID,22.874,VALID,149,VALID,0,
2010-08-07, 03:08:04,VALID,1008.64,VALID,0,VALID,103.176,VALID,0.105969,VALID,22.8333,VALID,149,VALID,0,
2010-08-07, 03:09:04,VALID,1008.67,VALID,0,VALID,103.192,VALID,0.105969,VALID,22.8545,VALID,149,VALID,0,
2010-08-07, 03:10:04,VALID,1008.68,VALID,0,VALID,103.222,VALID,0.105969,VALID,22.835,VALID,149,VALID,0,
2010-08-07, 03:11:04,VALID,1008.68,VALID,0,VALID,103.192,VALID,0.105969,VALID,22.835,VALID,149,VALID,0,
2010-08-07, 03:12:04,VALID,1008.69,VALID,0,VALID,103.161,VALID,0,VALID,22.8368,VALID,149,VALID,0,
2010-08-07, 03:13:04,VALID,1008.7,VALID,0,VALID,103.184,VALID,0,VALID,22.8173,VALID,149,VALID,0,
2010-08-07, 03:14:04,VALID,1008.71,VALID,0,VALID,103.192,VALID,0,VALID,22.8173,VALID,149,VALID,0,
2010-08-07, 03:15:04,VALID,1008.71,VALID,0,VALID,103.199,VALID,0,VALID,22.7978,VALID,149,VALID,0,
2010-08-07, 03:16:04,VALID,1008.7,VALID,0,VALID,103.192,VALID,0,VALID,22.7571,VALID,149,VALID,0,
2010-08-07, 03:17:04,VALID,1008.76,VALID,0,VALID,103.184,VALID,0,VALID,22.7961,VALID,149,VALID,0,
2010-08-07, 03:18:04,VALID,1008.71,VALID,0,VALID,103.169,VALID,0,VALID,22.7978,VALID,149,VALID,0,
2010-08-07, 03:19:04,VALID,1008.69,VALID,0,VALID,103.222,VALID,0,VALID,22.7588,VALID,149,VALID,0,
2010-08-07, 03:20:04,VALID,1008.68,VALID,0,VALID,103.222,VALID,0,VALID,22.7411,VALID,149,VALID,0,
2010-08-07, 03:21:04,VALID,1008.66,VALID,0,VALID,103.222,VALID,0,VALID,22.7199,VALID,149,VALID,0,
2010-08-07, 03:22:04,VALID,1008.65,VALID,0,VALID,103.237,VALID,0,VALID,22.7004,VALID,149,VALID,0,
2010-08-07, 03:23:04,VALID,1008.65,VALID,0,VALID,103.215,VALID,0,VALID,22.7004,VALID,149,VALID,0,
2010-08-07, 03:24:04,VALID,1008.65,VALID,0,VALID,103.222,VALID,0,VALID,22.6614,VALID,149,VALID,0,
2010-08-07, 03:25:04,VALID,1008.65,VALID,0,VALID,103.192,VALID,0,VALID,22.6809,VALID,149,VALID,0,
2010-08-07, 03:26:04,VALID,1008.63,VALID,0,VALID,103.169,VALID,0,VALID,22.6809,VALID,149,VALID,0,
2010-08-07, 03:27:04,VALID,1008.65,VALID,0,VALID,103.176,VALID,0,VALID,22.7216,VALID,149,VALID,0,
2010-08-07, 03:28:04,VALID,1008.65,VALID,0,VALID,103.176,VALID,0,VALID,22.7004,VALID,149,VALID,0,
2010-08-07, 03:29:04,VALID,1008.64,VALID,0,VALID,103.161,VALID,0,VALID,22.7004,VALID,149,VALID,0,
2010-08-07, 03:30:04,VALID,1008.63,VALID,0,VALID,103.184,VALID,0,VALID,22.7004,VALID,149,VALID,0,
2010-08-07, 03:31:04,VALID,1008.63,VALID,0,VALID,103.161,VALID,0,VALID,22.7216,VALID,149,VALID,0,
2010-08-07, 03:32:04,VALID,1008.62,VALID,0,VALID,103.184,VALID,0,VALID,22.6809,VALID,149,VALID,0,
2010-08-07, 03:33:04,VALID,1008.63,VALID,0,VALID,103.176,VALID,0,VALID,22.7004,VALID,149,VALID,0,
2010-08-07, 03:34:04,VALID,1008.64,VALID,0,VALID,103.169,VALID,0,VALID,22.7021,VALID,149,VALID,0,
2010-08-07, 03:35:04,VALID,1008.65,VALID,0,VALID,103.184,VALID,0.105969,VALID,22.6792,VALID,149,VALID,0,
2010-08-07, 03:36:04,VALID,1008.62,VALID,0,VALID,103.215,VALID,0.105969,VALID,22.6208,VALID,149,VALID,0,
2010-08-07, 03:37:04,VALID,1008.64,VALID,0,VALID,103.222,VALID,0.105969,VALID,22.6208,VALID,149,VALID,0,
2010-08-07, 03:38:04,VALID,1008.64,VALID,0,VALID,103.176,VALID,0.105969,VALID,22.642,VALID,149,VALID,0,
2010-08-07, 03:39:04,VALID,1008.64,VALID,0,VALID,103.207,VALID,0.105969,VALID,22.6208,VALID,149,VALID,0,
2010-08-07, 03:40:04,VALID,1008.59,VALID,0,VALID,103.207,VALID,0.105969,VALID,22.6013,VALID,149,VALID,0,
2010-08-07, 03:41:04,VALID,1008.61,VALID,0,VALID,103.207,VALID,0.105969,VALID,22.6013,VALID,149,VALID,0,
2010-08-07, 03:42:04,VALID,1008.64,VALID,0,VALID,103.222,VALID,0.105969,VALID,22.603,VALID,149,VALID,0,
2010-08-07, 03:43:04,VALID,1008.67,VALID,0,VALID,103.207,VALID,0.105969,VALID,22.5818,VALID,149,VALID,0,
2010-08-07, 03:44:04,VALID,1008.66,VALID,0,VALID,103.176,VALID,0,VALID,22.5818,VALID,149,VALID,0,
2010-08-07, 03:45:04,VALID,1008.66,VALID,0,VALID,103.192,VALID,0.105969,VALID,22.603,VALID,149,VALID,0,
2010-08-07, 03:46:04,VALID,1008.67,VALID,0,VALID,103.176,VALID,0.105969,VALID,22.6013,VALID,149,VALID,0,
2010-08-07, 03:47:04,VALID,1008.66,VALID,0,VALID,103.192,VALID,0.105969,VALID,22.6013,VALID,149,VALID,0,
2010-08-07, 03:48:04,VALID,1008.67,VALID,0,VALID,103.207,VALID,0.105969,VALID,22.5623,VALID,149,VALID,0,
2010-08-07, 03:49:04,VALID,1008.66,VALID,0,VALID,103.215,VALID,0.105969,VALID,22.5623,VALID,149,VALID,0,
2010-08-07, 03:50:04,VALID,1008.66,VALID,0,VALID,103.207,VALID,0,VALID,22.564,VALID,149,VALID,0,
2010-08-07, 03:51:04,VALID,1008.67,VALID,0,VALID,103.199,VALID,0,VALID,22.5446,VALID,149,VALID,0,
2010-08-07, 03:52:04,VALID,1008.67,VALID,0,VALID,103.199,VALID,0,VALID,22.5446,VALID,149,VALID,0,
2010-08-07, 03:53:04,VALID,1008.69,VALID,0,VALID,103.207,VALID,0,VALID,22.5658,VALID,149,VALID,0,
2010-08-07, 03:54:04,VALID,1008.69,VALID,0,VALID,103.161,VALID,0,VALID,22.5463,VALID,149,VALID,0,